SCP
0 0 0 0 0 0 0 0 0 0 0 0 -0 0 0 0 0 0 0 0 0 0 0 0 0 0 0 0 0 0 0 1 0 0 0 0 0 0 0 0 0 0 0 0 0 0 0
0 0 0 0 0 0 0 0 0 0 0 0 0 0 0 0 0 0 0 -0 0 0 0 0 0 0 0 0 0 0 0 0 0 0 0 0 0 0 0 0 0 0 0 0 0 0 0
0 0 0 0 0 0 0 0 0 0 0 0 0 0 0 0 0 0 0 0 0 0 0 0 0 0 0 0 0 0 0 0 0 0 0 0 0 0 0 0 0 0 0 0 0 0 0
0 0 0 0 0 0 0 -0 0 0 0 0 0 0 0 0 0 0 0 0 0 -0 0 0 0 0 0 0 0 0 0 0 0 0 0 0 0 0 0 0 0 0 0 0 0 0 0
0 0 0 0 0 0 0 -0 0 0 0 0 0 0 0 0 0 0 -0 0 0 0 0 0 0 -0 0 0 0 0 0 0 0 0 0 0 0 0 0 0 0 0 0 0 0 0 0
0 0 0 0 0 0 -0 -0 0 0 0 0 0 0 0 0 0 -0 -0 -0 0 0 0 0 0 0 0 0 0 -0 0 0 0 0 0 0 1 0 0 0 0 0 0 0 0 0 0
0 0 0 0 0 0 -0 -0 0 0 0 0 0 0 0 -0 0 0 0 0 0 0 0 0 0 0 0 0 -0 -0 0 0 0 0 0 0 0 0 0 0 0 0 0 0 0 0 0
0 0 0 0 0 0 -0 -0 -0 0 0 -0 0 0 0 0 0 0 0 0 0 0 0 0 0 0 0 0 0 0 0 0 0 0 0 0 0 0 0 0 0 0 0 0 0 0 0
0 0 0 0 0 0 -0 -0 -0 0 0 0 0 0 0 0 0 0 0 0 0 0 0 -0 0 0 0 0 0 0 0 0 0 0 0 0 0 0 0 0 0 0 0 0 0 0 0
0 0 0 0 0 0 -0 -0 -0 -0 0 0 0 0 0 0 0 0 0 0 0 0 0 0 0 0 0 0 0 0 0 0 0 -0 0 0 0 0 0 0 0 0 0 0 0 0 0
0 0 0 0 0 0 0 -0 -0 0 0 0 0 0 0 0 0 0 -0 0 0 0 0 0 0 0 0 0 0 0 0 0 0 0 0 0 0 0 0 0 0 0 0 0 0 0 0
0 0 0 0 0 0 0 -0 -0 0 0 0 0 0 0 0 0 0 0 0 0 0 0 0 0 0 0 0 0 -0 0 0 0 0 0 0 0 0 0 0 0 0 0 0 0 0 0
0 0 0 0 0 0 0 -0 0 -0 0 -0 -0 0 0 0 0 0 0 0 0 0 0 0 0 0 0 0 0 0 0 0 0 0 0 0 0 0 0 0 0 0 0 0 0 0 0
0 0 0 0 0 0 -0 -0 -0 -0 -0 -0 -0 0 0 0 0 0 0 0 0 0 0 0 0 0 0 0 0 0 0 0 0 0 0 0 0 0 0 0 0 0 0 0 0 0 0
0 0 0 0 0 0 0 -0 -0 -0 -0 -0 -0 0 0 0 0 0 0 0 0 0 0 0 0 0 0 0 0 0 0 0 0 0 0 0 0 0 0 0 0 0 0 0 0 0 0
0 0 0 0 0 0 0 0 -0 -0 -0 -0 0 0 0 0 0 0 0 0 0 0 0 0 0 0 0 0 0 0 0 0 -0 0 0 0 0 0 0 0 0 0 0 0 0 0 0
0 0 0 0 0 0 0 0 -0 -0 -0 -0 -0 -0 -0 0 -0 -0 0 0 -0 0 0 0 0 0 0 0 0 0 0 0 0 0 0 0 0 0 0 0 0 0 0 0 0 0 0
0 0 0 0 0 0 0 0 -0 -0 -0 -0 -0 -0 -0 0 -0 0 0 0 0 0 0 0 0 0 0 0 0 0 0 0 0 0 0 0 0 0 0 0 0 0 0 0 0 0 0
0 0 0 0 0 0 0 0 0 -0 -0 0 0 0 -0 -0 -0 -0 -0 0 0 0 0 -0 0 0 0 0 0 0 0 0 0 0 0 0 0 0 0 0 0 0 0 0 0 0 0
0 0 0 0 0 0 0 0 0 -0 -0 0 0 0 0 -0 -0 -0 -0 -0 -0 0 0 0 0 -0 0 0 0 0 0 0 0 0 0 0 0 0 0 0 0 0 0 0 0 0 0
0 0 0 0 0 0 0 0 0 -0 -0 0 0 0 0 -0 0 0 0 0 0 0 -0 -0 -0 0 0 0 0 0 0 0 0 0 0 0 0 0 0 0 0 0 0 0 0 0 0
0 0 0 0 0 0 0 0 0 -0 -0 0 0 0 0 0 0 0 0 0 0 0 -0 -0 -0 0 0 0 0 0 0 0 0 0 0 0 0 0 0 0 0 0 0 0 0 0 0
0 0 0 0 0 0 0 0 0 -0 0 0 0 0 0 0 0 0 0 0 0 0 0 0 0 0 0 0 0 0 0 0 0 0 0 0 0 0 0 0 0 0 -0 -0 0 0 0
0 0 0 0 0 0 0 0 0 0 0 0 0 0 0 0 0 0 0 0 0 0 0 0 0 0 0 0 0 0 0 0 0 0 0 0 0 0 0 0 0 0 0 0 0 0 0
0 0 0 0 0 0 0 0 0 0 0 0 0 0 0 0 0 0 0 0 0 0 0 0 0 0 0 0 0 0 0 0 0 0 0 0 0 0 0 0 0 0 0 0 0 0 -0
0 0 0 0 0 0 0 0 0 0 0 0 0 0 0 0 0 0 0 0 0 0 0 0 0 0 0 0 0 0 0 0 0 0 0 0 0 0 0 0 0 0 0 0 0 0 0
0 0 0 0 0 0 0 0 0 0 0 0 -0 -0 0 0 0 0 0 0 0 0 0 0 0 0 0 0 0 0 0 0 0 0 0 0 0 0 0 0 0 0 0 0 0 0 0
0 0 0 0 0 0 0 0 0 0 0 0 0 -0 -0 -0 0 0 0 0 0 0 0 0 0 0 0 0 0 0 0 0 0 0 0 0 0 0 0 0 0 0 0 0 0 0 0
0 0 0 0 0 0 0 0 0 0 0 0 0 -0 -0 -0 0 0 0 0 0 0 0 0 0 0 0 0 0 0 0 0 0 0 0 0 0 0 0 0 0 0 0 0 0 0 0
Wind_Speed_500mb
46 50 49 55 56 58 62 57 57 62 60 56 53 55 47 43 34 38 25 23 15 15 14 17 17 19 10 21 32 11 27 35 34 48 49 47 61 50 34 42 37 35 22 38 15 14 20
45 50 51 52 54 58 60 61 55 55 56 57 60 48 50 39 27 28 22 20 13 13 14 13 16 17 15 33 13 37 28 31 38 52 56 55 57 54 26 21 40 27 20 31 24 17 14
48 47 51 54 56 60 58 55 61 63 68 65 60 53 43 30 31 19 16 17 14 12 14 14 19 16 29 39 6 37 50 23 19 60 59 53 44 49 17 15 28 22 30 14 32 22 13
46 48 50 55 58 59 58 59 58 68 71 66 61 51 36 25 18 9 11 13 14 13 14 11 16 16 27 26 39 25 36 48 23 57 52 45 37 49 18 15 30 19 28 26 23 24 19
49 50 50 54 56 58 59 57 62 69 76 65 59 41 26 8 7 7 6 8 11 13 12 9 11 18 21 7 31 39 37 33 36 58 49 36 45 48 23 26 25 28 26 34 23 34 25
54 50 50 53 56 58 60 58 59 67 72 63 57 40 13 9 10 10 9 7 3 7 13 10 9 11 29 15 33 36 45 38 57 61 39 27 23 30 25 27 31 36 37 35 33 18 28
55 53 52 55 55 57 57 57 54 60 68 61 49 30 23 18 16 13 13 6 3 5 14 5 6 23 11 5 30 33 46 29 46 54 28 55 18 40 57 47 29 26 33 24 24 15 15
53 53 51 55 54 55 53 48 51 55 63 63 49 32 29 20 14 7 11 5 8 3 7 12 14 18 22 17 23 37 37 9 48 42 33 14 35 39 34 35 18 14 29 24 10 13 14
50 52 52 54 54 55 51 43 47 50 52 55 48 33 26 16 20 19 17 9 2 2 6 10 7 15 19 10 11 12 11 22 8 44 34 27 18 30 24 29 24 24 30 28 7 18 16
46 50 51 55 56 55 54 42 41 40 41 44 43 35 37 12 12 11 8 7 9 8 4 11 5 4 7 3 12 26 19 10 5 41 24 10 11 33 30 33 31 23 16 19 13 13 13
45 45 51 54 59 57 54 50 42 37 37 37 34 33 27 21 5 4 5 4 2 3 3 9 9 9 5 5 24 16 10 11 10 14 6 5 10 36 38 35 28 14 20 18 12 7 8
41 43 47 54 57 60 57 55 50 44 38 36 36 24 23 15 11 3 3 9 9 7 15 7 7 10 2 8 11 9 13 14 16 15 22 10 9 7 8 6 25 24 24 17 9 5 8
40 41 45 54 59 62 60 57 55 49 47 39 39 25 19 16 11 13 12 7 5 11 3 11 5 7 27 11 13 7 3 2 7 8 6 9 7 4 2 20 18 17 28 9 10 8 6
35 37 41 48 56 61 66 61 58 56 48 41 31 19 17 16 14 11 4 6 15 10 8 5 5 15 12 6 4 8 8 7 9 20 7 6 8 8 10 4 15 22 22 4 13 11 11
34 35 40 45 55 64 63 69 60 57 51 36 25 11 19 19 11 6 7 9 6 4 7 6 9 9 7 10 10 14 13 10 8 3 6 9 9 8 0 4 12 12 12 7 4 4 2
32 32 38 45 52 59 64 69 60 56 52 35 18 11 10 21 10 9 2 8 2 5 8 8 4 4 4 5 9 6 2 5 10 4 4 9 13 12 9 11 6 6 9 4 4 7 10
31 33 37 42 54 58 64 70 65 56 50 32 9 8 13 13 12 2 7 7 7 5 5 8 7 5 13 8 5 3 7 6 4 6 5 8 7 13 15 15 19 10 8 6 5 4 6
30 34 39 42 50 57 63 69 65 55 51 29 6 5 15 11 1 5 7 1 3 3 1 0 2 5 8 7 7 4 6 6 7 5 6 6 10 7 4 5 7 8 9 19 7 8 2
28 35 39 42 48 55 60 65 63 49 44 33 13 7 11 7 2 9 10 7 4 2 3 2 3 4 2 8 6 5 5 6 5 1 4 9 8 9 4 6 7 11 18 12 3 6 9
31 35 35 41 46 49 57 62 62 47 35 18 8 4 3 1 8 1 9 6 6 2 1 2 4 6 11 8 2 12 9 3 2 5 7 2 5 3 2 6 7 12 22 23 15 7 10
31 33 34 43 45 46 53 56 58 44 29 11 9 4 5 3 3 6 4 0 2 2 1 3 6 6 5 7 8 8 12 9 4 5 3 3 4 3 0 5 5 9 15 27 26 21 13
31 27 31 40 41 43 47 53 57 49 28 14 9 9 12 11 10 8 1 3 5 5 4 3 5 6 7 3 2 9 15 12 9 14 9 4 4 2 4 6 11 16 20 22 32 32 33
22 22 29 41 41 36 44 45 46 54 37 16 13 10 7 4 5 8 4 6 7 9 4 2 9 2 8 4 4 3 4 6 7 12 18 12 9 5 2 4 8 18 35 36 29 19 32
18 25 33 42 35 37 40 38 40 43 45 28 28 12 9 3 5 6 8 10 7 10 8 4 7 9 6 10 12 11 10 10 12 8 14 14 10 4 1 6 9 5 6 7 37 26 31
17 22 33 36 33 36 41 34 29 36 37 31 36 19 9 8 15 6 9 8 17 8 5 5 5 4 8 2 5 9 7 8 8 7 14 14 13 5 5 10 20 14 12 11 17 19 37
14 20 30 35 34 35 39 37 19 25 29 25 31 31 7 10 9 12 18 10 7 7 6 1 4 1 4 5 5 6 8 7 7 11 9 13 14 8 5 7 6 8 10 7 11 7 13
12 18 30 32 32 33 36 44 18 23 18 25 25 25 17 8 7 11 7 9 9 6 8 5 4 3 5 7 9 8 10 2 7 10 12 15 14 18 15 9 12 8 13 14 9 9 19
14 21 30 34 32 29 29 32 21 18 18 22 17 20 17 8 30 18 12 14 17 13 8 12 7 9 5 9 8 7 11 12 8 11 12 19 12 12 15 11 14 18 13 8 12 14 9
14 19 24 35 33 28 26 32 32 27 21 15 13 20 24 16 18 39 46 40 34 25 15 11 10 9 13 8 11 7 10 5 16 8 19 12 14 6 13 8 8 14 11 7 3 1 2
Wind_Direction_500mb
352 352 346 342 345 341 339 336 329 331 328 324 325 317 314 307 294 293 276 276 279 277 272 251 229 227 254 236 237 229 191 195 206 192 199 197 194 195 206 199 210 221 213 221 242 182 217
354 352 352 347 345 339 339 336 334 334 331 324 316 311 305 313 304 308 258 273 272 274 272 246 233 236 234 251 249 232 176 158 199 199 201 195 198 193 224 206 209 209 205 215 207 182 198
354 351 350 345 344 343 343 346 340 338 336 335 327 318 297 302 315 315 245 274 265 267 264 250 233 222 240 235 248 205 222 190 189 196 198 196 194 192 208 191 201 245 202 209 216 207 206
355 351 351 347 349 345 349 345 345 345 345 338 338 332 317 290 313 318 288 263 255 261 259 256 227 225 254 256 233 236 226 237 218 191 190 191 192 197 226 181 187 187 209 211 202 207 218
358 354 351 349 353 348 350 354 352 351 347 346 347 342 343 328 309 344 297 268 261 248 235 225 209 216 254 266 217 216 204 226 218 176 183 187 192 187 191 189 184 199 202 208 190 208 208
358 357 352 351 355 352 352 356 358 357 354 357 360 2 28 47 45 53 39 17 13 207 199 184 239 231 246 231 190 189 191 221 203 164 155 176 178 187 199 198 199 198 214 202 205 185 220
357 359 353 354 357 356 354 356 5 4 1 11 10 29 61 60 74 75 41 54 143 135 184 243 336 242 17 320 172 188 194 205 153 154 188 170 174 192 195 199 215 228 199 228 216 128 203
358 360 352 358 358 356 357 3 1 6 9 26 23 52 51 57 42 28 33 38 40 314 266 256 287 274 285 276 181 163 187 66 160 168 174 169 211 196 195 193 201 243 190 191 178 146 215
357 359 358 358 360 358 359 3 0 2 14 26 32 30 25 53 43 62 74 53 358 343 283 16 356 295 298 320 107 123 126 105 196 176 191 187 191 195 201 190 180 203 196 189 232 183 233
356 358 -0 358 1 0 356 357 356 355 6 16 25 22 16 356 51 67 51 80 89 18 254 17 55 322 294 83 60 106 95 87 346 184 179 155 223 186 179 185 193 185 191 161 165 198 226
351 359 360 359 358 1 357 356 350 345 343 349 5 14 18 23 62 85 154 119 341 299 106 28 297 333 199 357 136 46 97 96 180 107 171 106 205 195 184 186 208 114 153 159 154 232 309
346 356 0 359 359 0 360 356 353 345 341 336 334 337 357 341 345 347 284 332 329 244 43 14 262 159 235 112 86 122 65 74 71 83 50 60 24 8 25 164 195 134 131 131 132 190 236
342 351 359 359 359 358 357 358 355 347 339 336 329 312 325 340 280 293 307 323 274 26 249 14 54 106 73 66 56 81 87 147 121 118 85 41 26 81 1 118 131 168 172 152 185 196 242
339 349 355 358 357 357 357 353 355 352 340 338 338 323 323 323 311 335 312 238 46 343 63 210 198 88 71 113 43 129 151 97 68 86 130 142 126 1 345 122 170 194 196 233 204 191 164
340 347 348 354 356 353 356 354 351 350 344 338 334 317 344 336 348 34 270 47 65 284 335 93 84 73 102 104 145 211 97 87 131 39 98 122 84 124 84 299 166 171 210 15 353 60 243
337 346 347 348 352 351 353 351 350 351 346 338 337 301 292 343 31 79 34 91 69 193 276 292 61 260 134 146 183 180 70 63 121 9 284 117 112 121 137 137 348 214 145 172 164 209 217
335 343 342 344 345 349 350 350 350 349 351 342 356 292 326 342 58 87 74 68 106 191 283 327 20 120 123 171 235 95 57 109 89 88 26 114 91 141 159 207 171 160 198 216 298 289 290
337 338 337 343 346 347 347 351 350 351 351 353 13 289 333 341 303 89 79 202 314 21 316 88 62 56 149 155 165 127 134 49 106 131 89 28 100 138 163 89 329 322 234 209 239 184 254
336 338 335 341 346 343 347 350 350 351 354 353 331 292 314 334 149 119 139 153 225 161 87 122 106 334 263 159 157 146 88 63 124 104 130 159 130 126 172 203 191 219 211 223 175 351 215
340 340 338 344 349 347 348 353 352 353 354 355 338 317 353 118 345 189 168 153 184 146 47 348 117 161 166 171 355 158 136 67 65 37 46 51 146 308 232 68 132 193 208 203 195 203 203
341 343 352 354 354 351 351 356 355 358 0 38 13 17 352 322 105 331 281 266 213 143 186 243 183 257 195 160 154 149 137 140 179 166 161 258 160 107 110 99 139 219 208 204 210 217 227
342 357 349 355 353 354 355 356 3 8 16 51 24 2 334 288 299 266 161 67 10 38 319 141 277 183 192 241 282 173 176 186 183 184 201 179 131 101 277 227 238 249 234 221 220 223 241
354 358 348 349 355 355 359 359 6 16 29 50 23 2 337 60 293 269 54 27 32 333 87 11 358 248 218 41 342 29 121 167 160 182 192 184 149 174 240 214 274 266 232 216 214 218 224
3 6 356 351 357 354 354 358 0 13 25 34 26 31 340 334 285 353 344 337 322 346 330 355 339 309 56 95 102 118 124 126 141 156 187 186 162 152 272 242 237 58 74 207 220 221 219
13 12 5 359 359 352 358 354 3 10 13 28 31 35 7 305 343 271 326 322 304 274 263 306 37 22 156 243 175 156 166 180 169 196 199 219 186 172 246 228 295 236 191 180 180 233 223
3 359 356 2 360 358 1 356 345 351 353 15 23 23 21 321 57 340 326 319 310 309 233 149 16 354 213 256 241 244 214 204 175 172 217 209 238 237 216 263 258 48 141 173 175 211 174
342 345 351 352 351 354 353 358 346 356 344 1 5 9 22 316 323 346 330 341 330 289 283 305 330 215 222 236 243 245 246 135 216 206 187 194 207 222 227 264 285 144 137 152 224 99 127
326 330 334 337 345 345 345 353 1 354 351 347 339 358 359 287 287 271 267 285 301 278 285 17 253 206 201 236 231 220 260 208 239 212 182 189 197 209 223 229 259 133 134 226 86 115 109
322 328 335 336 342 340 340 338 332 342 319 331 325 330 334 299 263 278 280 264 255 257 298 266 316 317 348 252 229 215 225 239 244 233 198 206 206 228 209 226 124 191 271 113 20 219 202
Wind_Speed_850mb
46 50 49 55 56 58 62 57 57 62 60 56 53 55 47 43 34 38 25 23 15 15 14 17 17 19 10 21 32 11 27 35 34 48 49 47 61 50 34 42 37 35 22 38 15 14 20
45 50 51 52 54 58 60 61 55 55 56 57 60 48 50 39 27 28 22 20 13 13 14 13 16 17 15 33 13 37 28 31 38 52 56 55 57 54 26 21 40 27 20 31 24 17 14
48 47 51 54 56 60 58 55 61 63 68 65 60 53 43 30 31 19 16 17 14 12 14 14 19 16 29 39 6 37 50 23 19 60 59 53 44 49 17 15 28 22 30 14 32 22 13
46 48 50 55 58 59 58 59 58 68 71 66 61 51 36 25 18 9 11 13 14 13 14 11 16 16 27 26 39 25 36 48 23 57 52 45 37 49 18 15 30 19 28 26 23 24 19
49 50 50 54 56 58 59 57 62 69 76 65 59 41 26 8 7 7 6 8 11 13 12 9 11 18 21 7 31 39 37 33 36 58 49 36 45 48 23 26 25 28 26 34 23 34 25
54 50 50 53 56 58 60 58 59 67 72 63 57 40 13 9 10 10 9 7 3 7 13 10 9 11 29 15 33 36 45 38 57 61 39 27 23 30 25 27 31 36 37 35 33 18 28
55 53 52 55 55 57 57 57 54 60 68 61 49 30 23 18 16 13 13 6 3 5 14 5 6 23 11 5 30 33 46 29 46 54 28 55 18 40 57 47 29 26 33 24 24 15 15
53 53 51 55 54 55 53 48 51 55 63 63 49 32 29 20 14 7 11 5 8 3 7 12 14 18 22 17 23 37 37 9 48 42 33 14 35 39 34 35 18 14 29 24 10 13 14
50 52 52 54 54 55 51 43 47 50 52 55 48 33 26 16 20 19 17 9 2 2 6 10 7 15 19 10 11 12 11 22 8 44 34 27 18 30 24 29 24 24 30 28 7 18 16
46 50 51 55 56 55 54 42 41 40 41 44 43 35 37 12 12 11 8 7 9 8 4 11 5 4 7 3 12 26 19 10 5 41 24 10 11 33 30 33 31 23 16 19 13 13 13
45 45 51 54 59 57 54 50 42 37 37 37 34 33 27 21 5 4 5 4 2 3 3 9 9 9 5 5 24 16 10 11 10 14 6 5 10 36 38 35 28 14 20 18 12 7 8
41 43 47 54 57 60 57 55 50 44 38 36 36 24 23 15 11 3 3 9 9 7 15 7 7 10 2 8 11 9 13 14 16 15 22 10 9 7 8 6 25 24 24 17 9 5 8
40 41 45 54 59 62 60 57 55 49 47 39 39 25 19 16 11 13 12 7 5 11 3 11 5 7 27 11 13 7 3 2 7 8 6 9 7 4 2 20 18 17 28 9 10 8 6
35 37 41 48 56 61 66 61 58 56 48 41 31 19 17 16 14 11 4 6 15 10 8 5 5 15 12 6 4 8 8 7 9 20 7 6 8 8 10 4 15 22 22 4 13 11 11
34 35 40 45 55 64 63 69 60 57 51 36 25 11 19 19 11 6 7 9 6 4 7 6 9 9 7 10 10 14 13 10 8 3 6 9 9 8 0 4 12 12 12 7 4 4 2
32 32 38 45 52 59 64 69 60 56 52 35 18 11 10 21 10 9 2 8 2 5 8 8 4 4 4 5 9 6 2 5 10 4 4 9 13 12 9 11 6 6 9 4 4 7 10
31 33 37 42 54 58 64 70 65 56 50 32 9 8 13 13 12 2 7 7 7 5 5 8 7 5 13 8 5 3 7 6 4 6 5 8 7 13 15 15 19 10 8 6 5 4 6
30 34 39 42 50 57 63 69 65 55 51 29 6 5 15 11 1 5 7 1 3 3 1 0 2 5 8 7 7 4 6 6 7 5 6 6 10 7 4 5 7 8 9 19 7 8 2
28 35 39 42 48 55 60 65 63 49 44 33 13 7 11 7 2 9 10 7 4 2 3 2 3 4 2 8 6 5 5 6 5 1 4 9 8 9 4 6 7 11 18 12 3 6 9
31 35 35 41 46 49 57 62 62 47 35 18 8 4 3 1 8 1 9 6 6 2 1 2 4 6 11 8 2 12 9 3 2 5 7 2 5 3 2 6 7 12 22 23 15 7 10
31 33 34 43 45 46 53 56 58 44 29 11 9 4 5 3 3 6 4 0 2 2 1 3 6 6 5 7 8 8 12 9 4 5 3 3 4 3 0 5 5 9 15 27 26 21 13
31 27 31 40 41 43 47 53 57 49 28 14 9 9 12 11 10 8 1 3 5 5 4 3 5 6 7 3 2 9 15 12 9 14 9 4 4 2 4 6 11 16 20 22 32 32 33
22 22 29 41 41 36 44 45 46 54 37 16 13 10 7 4 5 8 4 6 7 9 4 2 9 2 8 4 4 3 4 6 7 12 18 12 9 5 2 4 8 18 35 36 29 19 32
18 25 33 42 35 37 40 38 40 43 45 28 28 12 9 3 5 6 8 10 7 10 8 4 7 9 6 10 12 11 10 10 12 8 14 14 10 4 1 6 9 5 6 7 37 26 31
17 22 33 36 33 36 41 34 29 36 37 31 36 19 9 8 15 6 9 8 17 8 5 5 5 4 8 2 5 9 7 8 8 7 14 14 13 5 5 10 20 14 12 11 17 19 37
14 20 30 35 34 35 39 37 19 25 29 25 31 31 7 10 9 12 18 10 7 7 6 1 4 1 4 5 5 6 8 7 7 11 9 13 14 8 5 7 6 8 10 7 11 7 13
12 18 30 32 32 33 36 44 18 23 18 25 25 25 17 8 7 11 7 9 9 6 8 5 4 3 5 7 9 8 10 2 7 10 12 15 14 18 15 9 12 8 13 14 9 9 19
14 21 30 34 32 29 29 32 21 18 18 22 17 20 17 8 30 18 12 14 17 13 8 12 7 9 5 9 8 7 11 12 8 11 12 19 12 12 15 11 14 18 13 8 12 14 9
14 19 24 35 33 28 26 32 32 27 21 15 13 20 24 16 18 39 46 40 34 25 15 11 10 9 13 8 11 7 10 5 16 8 19 12 14 6 13 8 8 14 11 7 3 1 2
Wind_Direction_850mb
352 352 346 342 345 341 339 336 329 331 328 324 325 317 314 307 294 293 276 276 279 277 272 251 229 227 254 236 237 229 191 195 206 192 199 197 194 195 206 199 210 221 213 221 242 182 217
354 352 352 347 345 339 339 336 334 334 331 324 316 311 305 313 304 308 258 273 272 274 272 246 233 236 234 251 249 232 176 158 199 199 201 195 198 193 224 206 209 209 205 215 207 182 198
354 351 350 345 344 343 343 346 340 338 336 335 327 318 297 302 315 315 245 274 265 267 264 250 233 222 240 235 248 205 222 190 189 196 198 196 194 192 208 191 201 245 202 209 216 207 206
355 351 351 347 349 345 349 345 345 345 345 338 338 332 317 290 313 318 288 263 255 261 259 256 227 225 254 256 233 236 226 237 218 191 190 191 192 197 226 181 187 187 209 211 202 207 218
358 354 351 349 353 348 350 354 352 351 347 346 347 342 343 328 309 344 297 268 261 248 235 225 209 216 254 266 217 216 204 226 218 176 183 187 192 187 191 189 184 199 202 208 190 208 208
358 357 352 351 355 352 352 356 358 357 354 357 360 2 28 47 45 53 39 17 13 207 199 184 239 231 246 231 190 189 191 221 203 164 155 176 178 187 199 198 199 198 214 202 205 185 220
357 359 353 354 357 356 354 356 5 4 1 11 10 29 61 60 74 75 41 54 143 135 184 243 336 242 17 320 172 188 194 205 153 154 188 170 174 192 195 199 215 228 199 228 216 128 203
358 360 352 358 358 356 357 3 1 6 9 26 23 52 51 57 42 28 33 38 40 314 266 256 287 274 285 276 181 163 187 66 160 168 174 169 211 196 195 193 201 243 190 191 178 146 215
357 359 358 358 360 358 359 3 0 2 14 26 32 30 25 53 43 62 74 53 358 343 283 16 356 295 298 320 107 123 126 105 196 176 191 187 191 195 201 190 180 203 196 189 232 183 233
356 358 -0 358 1 0 356 357 356 355 6 16 25 22 16 356 51 67 51 80 89 18 254 17 55 322 294 83 60 106 95 87 346 184 179 155 223 186 179 185 193 185 191 161 165 198 226
351 359 360 359 358 1 357 356 350 345 343 349 5 14 18 23 62 85 154 119 341 299 106 28 297 333 199 357 136 46 97 96 180 107 171 106 205 195 184 186 208 114 153 159 154 232 309
346 356 0 359 359 0 360 356 353 345 341 336 334 337 357 341 345 347 284 332 329 244 43 14 262 159 235 112 86 122 65 74 71 83 50 60 24 8 25 164 195 134 131 131 132 190 236
342 351 359 359 359 358 357 358 355 347 339 336 329 312 325 340 280 293 307 323 274 26 249 14 54 106 73 66 56 81 87 147 121 118 85 41 26 81 1 118 131 168 172 152 185 196 242
339 349 355 358 357 357 357 353 355 352 340 338 338 323 323 323 311 335 312 238 46 343 63 210 198 88 71 113 43 129 151 97 68 86 130 142 126 1 345 122 170 194 196 233 204 191 164
340 347 348 354 356 353 356 354 351 350 344 338 334 317 344 336 348 34 270 47 65 284 335 93 84 73 102 104 145 211 97 87 131 39 98 122 84 124 84 299 166 171 210 15 353 60 243
337 346 347 348 352 351 353 351 350 351 346 338 337 301 292 343 31 79 34 91 69 193 276 292 61 260 134 146 183 180 70 63 121 9 284 117 112 121 137 137 348 214 145 172 164 209 217
335 343 342 344 345 349 350 350 350 349 351 342 356 292 326 342 58 87 74 68 106 191 283 327 20 120 123 171 235 95 57 109 89 88 26 114 91 141 159 207 171 160 198 216 298 289 290
337 338 337 343 346 347 347 351 350 351 351 353 13 289 333 341 303 89 79 202 314 21 316 88 62 56 149 155 165 127 134 49 106 131 89 28 100 138 163 89 329 322 234 209 239 184 254
336 338 335 341 346 343 347 350 350 351 354 353 331 292 314 334 149 119 139 153 225 161 87 122 106 334 263 159 157 146 88 63 124 104 130 159 130 126 172 203 191 219 211 223 175 351 215
340 340 338 344 349 347 348 353 352 353 354 355 338 317 353 118 345 189 168 153 184 146 47 348 117 161 166 171 355 158 136 67 65 37 46 51 146 308 232 68 132 193 208 203 195 203 203
341 343 352 354 354 351 351 356 355 358 0 38 13 17 352 322 105 331 281 266 213 143 186 243 183 257 195 160 154 149 137 140 179 166 161 258 160 107 110 99 139 219 208 204 210 217 227
342 357 349 355 353 354 355 356 3 8 16 51 24 2 334 288 299 266 161 67 10 38 319 141 277 183 192 241 282 173 176 186 183 184 201 179 131 101 277 227 238 249 234 221 220 223 241
354 358 348 349 355 355 359 359 6 16 29 50 23 2 337 60 293 269 54 27 32 333 87 11 358 248 218 41 342 29 121 167 160 182 192 184 149 174 240 214 274 266 232 216 214 218 224
3 6 356 351 357 354 354 358 0 13 25 34 26 31 340 334 285 353 344 337 322 346 330 355 339 309 56 95 102 118 124 126 141 156 187 186 162 152 272 242 237 58 74 207 220 221 219
13 12 5 359 359 352 358 354 3 10 13 28 31 35 7 305 343 271 326 322 304 274 263 306 37 22 156 243 175 156 166 180 169 196 199 219 186 172 246 228 295 236 191 180 180 233 223
3 359 356 2 360 358 1 356 345 351 353 15 23 23 21 321 57 340 326 319 310 309 233 149 16 354 213 256 241 244 214 204 175 172 217 209 238 237 216 263 258 48 141 173 175 211 174
342 345 351 352 351 354 353 358 346 356 344 1 5 9 22 316 323 346 330 341 330 289 283 305 330 215 222 236 243 245 246 135 216 206 187 194 207 222 227 264 285 144 137 152 224 99 127
326 330 334 337 345 345 345 353 1 354 351 347 339 358 359 287 287 271 267 285 301 278 285 17 253 206 201 236 231 220 260 208 239 212 182 189 197 209 223 229 259 133 134 226 86 115 109
322 328 335 336 342 340 340 338 332 342 319 331 325 330 334 299 263 278 280 264 255 257 298 266 316 317 348 252 229 215 225 239 244 233 198 206 206 228 209 226 124 191 271 113 20 219 202